Weather History for Reno, NV

Change the Weather History Date:

Monday, July 8, 2013

  Actual Average Record
Temperature  
Mean Temperature 79 °F 74 °F  
Max Temperature 96 °F 91 °F 99 °F (1985)
Min Temperature 62 °F 57 °F 38 °F (1959)
Degree Days  
Heating Degree Days 0 0  
Month to date heating degree days 0 0  
Since 1 June heating degree days 16 56  
Since 1 July heating degree days 0 0  
Cooling Degree Days 14 9  
Month to date cooling degree days 141 68  
Year to date cooling degree days 404 241  
Since 1 June cooling degree days 368 204  
Growing Degree Days 29 (Base 50)    
Moisture  
Dew Point 35 °F    
Average Humidity 24    
Maximum Humidity 40    
Minimum Humidity 8    
Precipitation  
Precipitation 0.00 in 0.00 in 0.48 in (1908)
Month to date precipitation 0.21 0.04  
Year to date precipitation 1.68 4.32  
Snow  
Snow 0.00 in 0.00 in 0.00 in ()
Month to date snowfall 0.0 0.0  
Since 1 June snowfall 0.0 T  
Since 1 July snowfall 0.0 0.0  
Snow Depth 0.00 in    
Sea Level Pressure  
Sea Level Pressure 29.89 in    
Wind  
Wind Speed 7 mph (West)    
Max Wind Speed 23 mph    
Max Gust Speed 30 mph    
Visibility 10 miles    
Events      
T = Trace of Precipitation, MM = Missing Value Source: NWS Daily Summary

Daily Weather History Graph

Daily Weather History Graph

Search for Another Location

Airport:

Trip Planner

Search our weather history database for the weather conditions in past years. The results will help you decide how hot, cold, wet, or windy it might be!

Date:

Astronomy

Jul. 08, 2013 Rise Set
Actual Time 5:39 AM PDT 8:28 PM PDT
Civil Twilight 5:07 AM PDT 9:00 PM PDT
Nautical Twilight 4:27 AM PDT 9:40 PM PDT
Astronomical Twilight 3:41 AM PDT 10:26 PM PDT
Moon 6:12 AM PDT (7/8) 8:34 PM PDT (7/8)
Length of Visible Light 15h 52m
Length of Day
14h 48m
New Moon, 0% of the Moon is Illuminated
Jul 8
New Moon
Jul 15
First Quarter
Jul 22
Full
Jul 29
Last Quarter
Aug 6
New

Hourly Weather History & Observations

Time (PDT) Temp. Dew Point Humidity Pressure Visibility Wind Dir Wind Speed Gust Speed Precip Events Conditions
12:55 AM 72.0 °F 39.0 °F 30% 29.83 in 10.0 mi Calm Calm - N/A   Scattered Clouds
1:55 AM 72.0 °F 39.0 °F 30% 29.84 in 10.0 mi Calm Calm - N/A   Clear
2:55 AM 69.1 °F 37.0 °F 31% 29.85 in 10.0 mi Calm Calm - N/A   Clear
3:55 AM 64.9 °F 39.0 °F 39% 29.87 in 10.0 mi South 3.5 mph - N/A   Clear
4:55 AM 64.0 °F 39.0 °F 40% 29.88 in 10.0 mi Calm Calm - N/A   Clear
5:55 AM 64.9 °F 39.0 °F 39% 29.89 in 10.0 mi Calm Calm - N/A   Clear
6:55 AM 66.0 °F 39.0 °F 37% 29.91 in 10.0 mi WNW 3.5 mph - N/A   Partly Cloudy
7:55 AM 69.1 °F 39.9 °F 35% 29.92 in 10.0 mi Calm Calm - N/A   Clear
8:55 AM 73.9 °F 37.9 °F 27% 29.93 in 10.0 mi Calm Calm - N/A   Partly Cloudy
9:55 AM 80.6 °F 37.4 °F 21% 29.92 in 10.0 mi Variable 4.6 mph - N/A   Partly Cloudy
10:55 AM 82.4 °F 35.6 °F 19% 29.91 in 10.0 mi Calm Calm - N/A   Partly Cloudy
11:55 AM 87.1 °F 32.0 °F 14% 29.89 in 10.0 mi Variable 6.9 mph - N/A   Partly Cloudy
12:55 PM 89.6 °F 30.2 °F 12% 29.88 in 10.0 mi Variable 3.5 mph - N/A   Partly Cloudy
1:55 PM 91.9 °F 26.1 °F 9% 29.87 in 10.0 mi SSE 8.1 mph - N/A   Partly Cloudy
2:55 PM 93.0 °F 24.1 °F 8% 29.86 in 10.0 mi SSW 5.8 mph - N/A   Partly Cloudy
3:55 PM 96.8 °F 24.8 °F 8% 29.86 in 10.0 mi SW 11.5 mph 18.4 mph N/A   Scattered Clouds
4:55 PM 96.1 °F 30.9 °F 10% 29.86 in 10.0 mi WNW 16.1 mph 20.7 mph N/A   Partly Cloudy
5:55 PM 91.9 °F 36.0 °F 14% 29.86 in 10.0 mi WNW 19.6 mph 26.5 mph N/A   Partly Cloudy
6:55 PM 89.1 °F 36.0 °F 15% 29.88 in 10.0 mi WNW 20.7 mph - N/A   Partly Cloudy
7:55 PM 86.0 °F 37.9 °F 18% 29.89 in 10.0 mi NW 16.1 mph - N/A   Scattered Clouds
8:55 PM 82.4 °F 39.2 °F 21% 29.92 in 10.0 mi WNW 17.3 mph 24.2 mph N/A   Mostly Cloudy
9:55 PM 80.6 °F 37.4 °F 21% 29.95 in 10.0 mi WNW 11.5 mph - N/A   Mostly Cloudy
10:55 PM 78.8 °F 37.4 °F 23% 29.96 in 10.0 mi NNW 4.6 mph - N/A   Scattered Clouds
11:55 PM 75.9 °F 36.0 °F 23% 29.97 in 10.0 mi NW 4.6 mph - N/A   Clear